Simultaneous Nadir Overpasses (SNOs) Predictions

Prediction of SNOs between FY3D and METOP-C Satellite Orbit:

Table of predicted SNOs for the next 14.0 days since TLE Epoch: 1/6/2024
Index Date (FY3D) Time (FY3D) Lat,Lon (FY3D) SZA (FY3D ) Date (METOP-C) Time (METOP-C) Lat,Lon (METOP-C) SZA (METOP-C ) Distance(km) Time Diff (sec)
1 01/17/2024 13:53:20 -75.97, 148.18 83.27 01/17/2024 13:54:26 -75.96, 151.33 83.34 84.94 66
2 01/17/2024 14:44:02 75.80, -43.91 96.54 01/17/2024 14:45:11 75.76, -42.02 96.46 51.97 69
3 01/17/2024 15:34:43 -75.60, 124.04 83.68 01/17/2024 15:35:56 -75.57, 124.72 83.73 18.98 73
4 01/17/2024 16:25:26 75.47, -68.22 96.18 01/17/2024 16:26:39 75.46, -68.31 96.16 2.77 73
5 01/17/2024 17:16:11 -75.46, 99.12 83.85 01/17/2024 17:17:20 -75.46, 99.03 83.85 2.73 69
6 01/17/2024 18:06:57 75.46, -93.58 96.16 01/17/2024 18:08:00 75.49, -93.57 96.17 2.40 63
7 01/17/2024 18:57:42 -75.45, 73.76 83.87 01/17/2024 18:58:41 -75.49, 73.77 83.84 3.71 59
8 01/17/2024 19:48:28 75.46,-118.95 96.14 01/17/2024 19:49:22 75.47,-118.97 96.14 0.79 54
9 01/17/2024 20:39:13 -75.45, 48.40 83.88 01/17/2024 20:40:03 -75.47, 48.37 83.87 2.12 50
10 01/17/2024 21:29:59 75.46,-144.31 96.12 01/17/2024 21:30:44 75.45,-144.37 96.11 1.93 45
11 01/17/2024 22:20:44 -75.45, 23.03 83.90 01/17/2024 22:21:25 -75.45, 22.97 83.90 1.77 41
12 01/17/2024 23:11:30 75.45,-169.68 96.10 01/17/2024 23:12:05 75.47,-169.62 96.12 2.78 35
13 01/18/2024 00:02:15 -75.44, -2.33 83.92 01/18/2024 00:02:47 -75.43, -2.43 83.93 3.11 32
14 01/18/2024 00:53:01 75.45, 164.96 96.08 01/18/2024 00:53:27 75.45, 164.97 96.09 0.75 26
15 01/18/2024 01:43:46 -75.44, -27.70 83.94 01/18/2024 01:44:08 -75.46, -27.69 83.92 2.11 22
16 01/18/2024 02:34:32 75.44, 139.59 96.07 01/18/2024 02:34:49 75.43, 139.57 96.05 1.29 17
17 01/18/2024 03:25:17 -75.43, -53.06 83.96 01/18/2024 03:25:30 -75.44, -53.09 83.96 0.86 13
18 01/18/2024 04:16:03 75.44, 114.23 96.05 01/18/2024 04:16:11 75.41, 114.17 96.02 3.32 8
19 01/18/2024 05:06:48 -75.43, -78.42 83.98 01/18/2024 05:06:52 -75.42, -78.49 83.99 2.23 4
20 01/18/2024 05:57:33 75.43, 88.87 96.03 01/18/2024 05:57:31 75.44, 88.92 96.03 1.53 2
21 01/18/2024 06:48:18 -75.42,-103.79 84.00 01/18/2024 06:48:12 -75.44,-103.74 83.98 2.51 6
22 01/18/2024 07:39:04 75.43, 63.50 96.01 01/18/2024 07:38:53 75.42, 63.51 96.00 1.22 11
23 01/18/2024 08:29:49 -75.42,-129.15 84.01 01/18/2024 08:29:34 -75.42,-129.15 84.01 0.52 15
24 01/18/2024 09:20:35 75.43, 38.14 95.99 01/18/2024 09:20:15 75.40, 38.11 95.97 2.98 20
25 01/18/2024 10:11:20 -75.41,-154.52 84.03 01/18/2024 10:10:56 -75.40,-154.55 84.04 1.48 24
26 01/18/2024 11:02:06 75.42, 12.77 95.97 01/18/2024 11:01:36 75.43, 12.86 95.98 2.46 30
27 01/18/2024 11:52:51 -75.41,-179.88 84.05 01/18/2024 11:52:17 -75.43,-179.80 84.03 3.18 34
28 01/18/2024 12:43:37 75.42, -12.59 95.95 01/18/2024 12:42:58 75.41, -12.54 95.94 1.80 39
29 01/18/2024 13:34:22 -75.41, 154.75 84.07 01/18/2024 13:33:39 -75.41, 154.80 84.06 1.33 43
30 01/18/2024 14:25:08 75.41, -37.96 95.93 01/18/2024 14:24:20 75.39, -37.95 95.91 2.95 48
31 01/18/2024 15:15:53 -75.40, 129.39 84.09 01/18/2024 15:15:01 -75.39, 129.40 84.10 1.18 52
32 01/18/2024 16:06:39 75.41, -63.32 95.92 01/18/2024 16:05:41 75.41, -63.20 95.92 3.41 58
33 01/18/2024 16:57:24 -75.40, 104.03 84.11 01/18/2024 16:56:23 -75.37, 104.00 84.13 3.00 61
34 01/18/2024 17:48:10 75.40, -88.69 95.90 01/18/2024 17:47:03 75.39, -88.60 95.89 2.63 67
35 01/18/2024 18:38:55 -75.39, 78.66 84.13 01/18/2024 18:37:44 -75.40, 78.74 84.12 2.29 71
36 01/18/2024 19:29:40 75.35,-113.91 95.83 01/18/2024 19:28:26 75.33,-114.15 95.81 7.46 74
37 01/18/2024 20:20:22 -75.20, 53.87 84.34 01/18/2024 20:19:10 -75.19, 52.77 84.33 31.25 72
38 01/18/2024 21:11:03 74.97,-138.13 95.42 01/18/2024 21:09:55 74.97,-140.52 95.46 68.94 68
39 01/18/2024 22:01:45 -74.82, 29.62 84.76 01/18/2024 22:00:39 -74.83, 26.42 84.68 93.07 66



Historial Predications of SNOs between FY3D and METOP-C
